Content
SEND FEEDBACK

Daily
Averages
Monthly
Summary
Mexico

MEXICO CITY - PARQUE NACIONAL CUMBRES DEL AJUSCO, DISTRITO FEDERAL


Home > North America > Mexico > Distrito Federal
Elevation: 9514 feet     Latitude: 19 13N     Longitude: 099 12W

WEATHER
 
SELECT A DAY
Number of Records: 208,807;   Date Range: 1/1/95 - 8/31/14
 
SHARE

PRINT THIS DATA

[ ← Previous Day ]
WEATHER ALMANAC - FEBRUARY 5, 2013
[ Next Day → ]
[ °C ]   °F
Weather ElementAverageHighLow
Temperature60.6 °F77 °F (2:42 pm)46.4 °F (5:46 am)
Dewpoint40 °F46.4 °F (1:54 am)26.6 °F (4:43 pm)
Humidity54.1 %87 % (3:50 am)17 % (3:44 pm)
Barometer30.19 in30.37 in (9:23 am)29.73 in (2:52 am)
Wind Speed3.8 mph9.2 mph (5:45 pm)
Weather ElementAverage
Visibility7.8 mi
Wind DirectionENE (70.6 °)

Weather ElementTotal
Precipitation---
Heating Degree Days3.3 (Base 65)
Growing Degree Days11.7 (Base 50)
Averaged from 35 records on February 5, 2013
WEATHER CONDITIONS BREAKOUT
WIND DIRECTION BREAKOUT
WEATHER BY HOUR - FEBRUARY 5, 2013
[ °C ]   °F
Local TimeTemperatureDewpointHumidityBarometerVisibilityWind DirectionWind SpeedGust SpeedPrecipitationEventsConditions
1:54 AM53.6 °F46.4 °F77 %30.29 in12.0 miCalmClear
2:52 AM51.8 °F46.4 °F82 %29.73 in12.0 miCalmClear
3:50 AM48.2 °F44.6 °F87 %30.27 in10.0 miCalmClear
3:52 AM48.2 °F44.6 °F87 %30.27 in10.0 miCalmClear
4:46 AM48.2 °F44.6 °F87 %30.28 in10.0 miEast (80°)4.6 mphClear
5:46 AM46.4 °F42.8 °F87 %29.88 in8.0 miEast (80°)4.6 mphClear
6:23 AM46.4 °F42.8 °F87 %30.30 in7.0 miEast (90°)5.8 mphClear
6:49 AM46.4 °F42.8 °F87 %30.31 in7.0 miENE (60°)4.6 mphClear
7:21 AM46.4 °F42.8 °F87 %30.33 in6.0 miENE (60°)3.5 mphClear
7:44 AM46.4 °F42.8 °F87 %30.34 in6.0 miENE (70°)3.5 mphClear
8:18 AM50.0 °F42.8 °F76 %30.35 in6.0 miCalmClear
8:20 AM50.0 °F42.8 °F76 %30.35 in6.0 miCalmClear
8:44 AM51.8 °F42.8 °F71 %29.99 in6.0 miENE (60°)3.5 mphClear
9:23 AM55.4 °F46.4 °F72 %30.37 in6.0 miENE (60°)2.3 mphClear
9:24 AM55.4 °F46.4 °F72 %30.37 in6.0 miENE (60°)2.3 mphClear
9:42 AM57.2 °F44.6 °F63 %30.37 in6.0 miNE (40°)3.5 mphClear
10:04 AM60.8 °F44.6 °F55 %30.36 in6.0 miCalmClear
10:43 AM62.6 °F44.6 °F52 %30.35 in6.0 miNE (50°)3.5 mphClear
11:07 AM66.2 °F44.6 °F46 %30.35 in6.0 miENE (60°)2.3 mphClear
11:43 AM66.2 °F41.0 °F40 %29.89 in6.0 miNorth (10°)3.5 mphClear
12:26 PM69.8 °F39.2 °F33 %30.30 in6.0 miENE (70°)5.8 mphClear
12:42 PM69.8 °F37.4 °F31 %30.30 in6.0 miEast (100°)4.6 mphClear
1:29 PM73.4 °F33.8 °F23 %30.27 in6.0 miEast (100°)4.6 mphPartly Cloudy
1:45 PM73.4 °F33.8 °F23 %30.26 in6.0 miSE (130°)5.8 mphPartly Cloudy
2:42 PM77.0 °F30.2 °F18 %30.21 in6.0 miSSE (150°)4.6 mphPartly Cloudy
2:46 PM77.0 °F30.2 °F18 %29.73 in6.0 miEast (90°)3.5 mphPartly Cloudy
3:44 PM77.0 °F28.4 °F17 %30.20 in6.0 miSE (130°)5.8 mphScattered Clouds
4:43 PM75.2 °F26.6 °F17 %30.18 in6.0 miNNE (20°)8.1 mphScattered Clouds
5:45 PM73.4 °F30.2 °F20 %29.74 in7.0 miEast (80°)9.2 mphScattered Clouds
6:43 PM71.6 °F37.4 °F29 %30.21 in10.0 miSouth (190°)9.2 mphMostly Cloudy
7:42 PM69.8 °F39.2 °F33 %30.23 in12.0 miSSE (150°)5.8 mphScattered Clouds
8:42 PM68.0 °F37.4 °F33 %29.79 in12.0 miSE (130°)6.9 mphClear
9:41 PM64.4 °F37.4 °F37 %30.28 in12.0 miSSE (150°)6.9 mphClear
10:49 PM64.4 °F39.2 °F40 %30.30 in12.0 miSSW (200°)5.8 mphClear
11:46 PM60.8 °F39.2 °F45 %29.80 in12.0 miCalmClear
Hourly data recorded from MMMX, located miles away from Mexico City - Parque Nacional Cumbres del Ajusco, Distrito Federal







STORIES FROM OUR PARTNERS